Weather History for LIBA - June, 2013

Change the Weather History Date:

Wednesday, June 19, 2013

  Actual Average Record
Temperature  
Mean Temperature 82 °F -  
Max Temperature 99 °F 87 °F 99 °F (2012)
Min Temperature 65 °F 62 °F 48 °F (2003)
Cooling Degree Days 17    
Growing Degree Days 32 (Base 50)    
Moisture  
Dew Point 61 °F    
Average Humidity 47    
Maximum Humidity 94    
Minimum Humidity 11    
Precipitation  
Precipitation 0.00 in 0.04 in - ()
Sea Level Pressure  
Sea Level Pressure 29.97 in    
Wind  
Wind Speed 3 mph ()    
Max Wind Speed 13 mph    
Max Gust Speed -    
Visibility 9.2 miles    
Events      
Averages and records for this station are not official NWS values.
T = Trace of Precipitation, MM = Missing Value Source: Averaged Metar Reports

Daily Weather History Graph

Daily Weather History Graph

Search for Another Location

Airport or City:

Trip Planner

Search our weather history database for the weather conditions in past years. The results will help you decide how hot, cold, wet, or windy it might be!

Date:

Astronomy

Jun. 19, 2013 Rise Set
Actual Time 5:22 AM CEST 8:34 PM CEST
Civil Twilight 4:48 AM CEST 9:08 PM CEST
Nautical Twilight 4:05 AM CEST 9:52 PM CEST
Astronomical Twilight 3:12 AM CEST 10:44 PM CEST
Moon 4:04 PM CEST (6/19) 1:59 AM CEST (6/19)
Length of Visible Light 16h 19m
Length of Day
15h 11m
Waxing Gibbous, 78% of the Moon is Illuminated
Jun 19
Waxing Gibbous
Jun 23
Full
Jun 30
Last Quarter
Jul 8
New
Jul 16
First Quarter

Hourly Weather History & Observations

Time (CEST) Temp. Heat Index Dew Point Humidity Pressure Visibility Wind Dir Wind Speed Gust Speed Precip Events Conditions
6:55 AM 66.2 °F - 62.6 °F 88% 29.98 in - Calm Calm - N/A   Clear
8:00 AM 76 °F - 65 °F 61% 30.00 in 16 mi WSW 1.2 mph - -  
8:55 AM 82.4 °F 82.5 °F 59.0 °F 45% 30.01 in - Calm Calm - N/A   Clear
9:55 AM 86.0 °F 84.9 °F 57.2 °F 37% 30.01 in - SW 1.2 mph - N/A   Clear
10:55 AM 91.4 °F 89.9 °F 57.2 °F 31% 30.01 in - ESE 1.2 mph - N/A   Clear
11:00 AM 91 °F - 57 °F 22% 30.00 in 16 mi ESE 1.2 mph - -  
11:55 AM 95.0 °F 92.7 °F 53.6 °F 25% 29.98 in 6.2 mi SE 2.3 mph - N/A   Partly Cloudy
12:55 PM 98.6 °F - 51.8 °F 21% 29.98 in 6.2 mi East 2.3 mph - N/A   Partly Cloudy
1:55 PM 98.6 °F - 50.0 °F 19% 29.98 in 6.2 mi ENE 2.3 mph - N/A   Partly Cloudy
2:00 PM 99 °F - 49 °F 11% 29.96 in 16 mi ENE 2.3 mph - -   Scattered Clouds
2:55 PM 95.0 °F 92.7 °F 53.6 °F 25% 29.95 in 6.2 mi ENE 10.4 mph - N/A   Partly Cloudy
3:55 PM 93.2 °F 91.9 °F 57.2 °F 30% 29.95 in 6.2 mi East 12.7 mph - N/A   Partly Cloudy
4:55 PM 89.6 °F 89.5 °F 60.8 °F 38% 29.95 in 6.2 mi East 11.5 mph - N/A   Partly Cloudy
5:00 PM 90 °F - 61 °F 28% 29.94 in 16 mi East 11.5 mph - -   Scattered Clouds
5:55 PM 89.6 °F 90.1 °F 62.6 °F 40% 29.95 in 6.2 mi East 10.4 mph - N/A   Partly Cloudy
6:55 PM 86.0 °F 87.3 °F 64.4 °F 48% 29.95 in 6.2 mi East 8.1 mph - N/A   Partly Cloudy
7:55 PM 82.4 °F 85.4 °F 68.0 °F 62% 29.95 in 6.2 mi ESE 2.3 mph - N/A   Partly Cloudy
8:00 PM 82 °F - 68 °F 53% 29.96 in 12 mi ESE 2.3 mph - -   Scattered Clouds
8:55 PM 78.8 °F - 69.8 °F 74% 29.98 in 6.2 mi Calm Calm - N/A   Partly Cloudy
9:55 PM 78.8 °F - 71.6 °F 78% 29.98 in 6.2 mi Calm Calm - N/A   Partly Cloudy
10:55 PM 75.2 °F - 68.0 °F 78% 29.98 in - WNW 3.5 mph - N/A   Clear
11:00 PM 76 °F - 68 °F 70% 29.99 in 12 mi WNW 3.5 mph - -  
11:55 PM 71.6 °F - 69.8 °F 94% 29.98 in - WNW 3.5 mph - N/A   Clear